User: anonymous
Location: Unspecified
(0.0000°N, 0.0000°E)
Time: 23:15:37
(UTC+02:00)
Language:

YAOGAN 3 - Orbit

View from above orbital plane
View from above orbital plane
View from above satellite
View from above satellite

Ground track
Ground track

The orbit data is extracted from the following two-line orbital elements,

1 32289U 07055A   14211.52015766 -.00000016  00000-0  45960-5 0  4365
2 32289 097.9401 203.1327 0001701 104.4754 255.6645 14.81920292362943
Epoch (UTC): 30 July 2014 12:29:01
Eccentricity: 0.0001701
inclination: 97.9401°
perigee height: 622 km
apogee height: 624 km
right ascension of ascending node: 203.1327°
argument of perigee: 104.4754°
revolutions per day: 14.81920292
mean anomaly at epoch: 255.6645°
orbit number at epoch: 36294

The dashed part of the orbit path shows where the satellite is in the earth's shadow,  

DLR